#timestamp,LO_Frequency,Hit,StdDev 
1511611215.6,286047000.7,N
1511611235.4,286047004.2,N
1511611255.2,286047000.2,N
1511611275.1,286046998.3,N
1511611276.0,286046998.3,N
1511611295.8,286047002.4,N
1511611315.6,286047005.6,N
1511611335.4,286047004.8,N
1511611355.3,286047005.5,N
1511611375.1,286047004.0,N
1511611395.8,286047001.4,N
1511611415.7,286046999.1,N
1511611435.5,286046993.3,N
1511611455.3,286046990.1,N
1511611475.2,286046991.0,N
1511611495.9,286046987.1,N
1511611515.7,286046985.9,N
1511611535.6,286046985.5,N
1511611555.4,286046989.8,N
1511611575.2,286046985.3,N
1511611595.1,286046984.8,N
1511611596.0,286046984.8,N
1511611615.8,286046983.2,N
1511611635.6,286046979.7,N
1511611655.4,286046977.8,N
1511611675.3,286046974.6,Y
1511611695.1,286046981.7,P
1511611715.9,286046977.4,P
1511611735.7,286046979.8,N
1511611755.5,286046974.6,Y
1511611775.4,286046992.6,P
1511611795.2,286046994.7,N
1511611815.0,286046991.7,N
1511611815.9,286046991.7,N
1511611835.7,286046990.1,N
1511611855.6,286046992.3,N
1511611875.4,286046996.8,N
1511611895.2,286046996.5,N
1511611915.1,286046998.7,N
1511611916.0,286046998.7,N
1511611935.8,286046998.6,N
1511611955.6,286046999.9,N
1511611975.5,286047000.9,N
1511611995.3,286047002.1,N
1511612015.1,286047001.8,N
1511612035.9,286047003.0,N
1511612055.7,286047006.9,N
1511612075.5,286047006.8,N
1511612095.4,286047010.6,N
1511612115.2,286047010.1,N
1511612135.0,286047009.5,N
1511612135.9,286047009.5,N
1511612155.7,286047015.4,N
1511612175.6,286047011.1,N
1511612195.4,286047012.4,N
1511612215.2,286047013.2,N
1511612235.1,286047015.6,N
1511612236.0,286047015.6,N
1511612255.8,286047017.0,N
1511612275.6,286047018.7,N
1511612295.5,286047017.7,N
1511612315.3,286047021.8,N
1511612335.1,286047018.6,N
1511612355.9,286047014.8,N
1511612375.7,286047013.5,N
1511612395.5,286047014.9,N
1511612415.4,286047019.3,N
1511612435.2,286047017.8,N
1511612455.0,286047019.7,N
1511612455.9,286047019.7,N
1511612475.8,286047022.3,Y
1511612495.6,286047008.4,P
1511612515.4,286047010.2,P
1511612535.3,286047011.6,P
1511612555.1,286047013.9,Y
1511612556.0,286047013.9,P
1511612575.8,286047004.7,N
1511612595.7,286047004.9,N
1511612615.5,286047007.6,N
1511612635.3,286047003.0,N
1511612655.2,286047001.6,N
1511612675.9,286047001.6,N
1511612695.7,286047005.9,N
1511612715.5,286047003.1,N
1511612735.4,286047004.2,N
1511612755.2,286047000.7,N
1511612775.0,286046999.3,N
1511612775.9,286046999.3,N
1511612795.8,286047002.0,N
1511612815.6,286047002.5,N
1511612835.4,286047004.2,N
1511612855.3,286046999.9,N
1511612875.1,286047000.4,N
1511612876.0,286047000.4,N
1511612895.8,286047001.9,N
1511612915.7,286046999.4,N
1511612935.5,286047000.1,N
1511612955.3,286046998.5,N
1511612975.2,286046996.8,N
1511612995.9,286046998.0,N
1511613015.7,286046997.0,N
1511613035.5,286046998.0,N
1511613055.4,286046997.5,N
1511613075.2,286046996.1,N
1511613095.0,286046998.0,N
1511613095.9,286046998.0,N
1511613115.8,286046998.7,N
1511613135.6,286046998.7,N
1511613155.4,286046997.9,N
1511613175.3,286046999.5,N
1511613195.1,286046998.5,N
1511613196.0,286046998.5,N
1511613215.8,286047000.2,N
1511613235.7,286047002.2,N
1511613255.5,286047002.5,N
1511613275.3,286047001.0,N
1511613295.2,286046998.0,N
1511613315.9,286046997.4,N
1511613335.7,286046996.8,N
1511613355.6,286046993.3,Y
1511613375.4,286046990.1,P
1511613395.2,286046994.8,N
1511613415.0,286046996.8,N
1511613416.0,286046996.8,N
1511613435.8,286046998.8,N
1511613455.6,286047000.7,N
1511613475.4,286047000.1,N
1511613495.3,286047000.9,N
1511613515.1,286046995.7,N
1511613535.8,286046996.8,N
1511613555.7,286046999.6,N
1511613575.5,286046997.2,N
1511613595.3,286046997.9,N
1511613615.2,286046994.5,N
1511613635.9,286046994.2,N
1511613655.7,286046989.1,Y
1511613675.6,286046988.9,P
1511613695.4,286046987.6,P
1511613715.2,286046988.4,N
1511613735.1,286046981.3,Y
1511613736.0,286046981.3,P
1511613755.8,286046988.8,N
1511613775.6,286046986.6,P
1511613795.5,286046980.5,Y
1511613815.3,286046999.4,P
1511613835.1,286046993.8,N
1511613855.9,286046992.6,N
1511613875.7,286046988.9,N
1511613895.5,286046991.1,N
1511613915.4,286046991.6,N
1511613935.2,286046990.0,N
1511613955.0,286046988.4,Y
1511613955.9,286046988.4,P
1511613975.8,286046995.7,N
1511613995.6,286046991.7,N
1511614015.4,286046996.0,N
1511614035.3,286046999.3,N
1511614055.1,286046996.9,N
1511614056.0,286046996.9,N
1511614075.8,286046997.7,N
1511614095.7,286046999.1,N
1511614115.5,286046999.9,N
1511614135.3,286047004.8,N
1511614155.1,286047007.1,N
1511614175.9,286047007.2,N
1511614195.7,286047010.7,N
1511614215.5,286047010.6,N
1511614235.4,286047010.2,N
1511614255.2,286047012.5,N
1511614275.0,286047017.0,N
1511614275.9,286047017.0,N
1511614295.8,286047016.9,N
1511614315.6,286047016.3,N
1511614335.4,286047016.3,N
1511614355.3,286047015.8,N
1511614375.1,286047020.3,N
1511614376.0,286047020.3,N
1511614395.8,286047020.3,N
1511614415.7,286047020.5,N
1511614435.5,286047024.3,N
1511614455.3,286047028.0,N
1511614475.1,286047029.0,N
1511614495.9,286047028.5,N
1511614515.7,286047031.1,N
1511614535.5,286047032.2,N
1511614555.4,286047033.5,Y
1511614575.2,286047019.7,P
1511614595.0,286047017.9,P
1511614595.9,286047017.9,P
1511614615.8,286047016.3,Y
1511614635.6,286046997.2,P
1511614655.4,286046998.4,N
1511614675.3,286047003.8,N
1511614695.1,286047003.9,N
1511614715.8,286046999.7,N
1511614735.7,286047000.5,N
1511614755.5,286047000.1,N
1511614775.3,286046998.4,N
1511614795.2,286046999.0,N
